When you browse on this site, cookies collect data to enhance your experience and personalize the content and advertising you see.
Visit our Privacy Policy to learn more. By continuing to use the site, you agree to this use of cookies and data.
  • In France
  • List of Countries
  • For 7 days
  • Water Temperature
  • Satellite Maps
  • Weather Map
  • Weather Widgets
  • user-avatar
    Login

    Hourly Weather Plovdiv

    Today, 25 May, Saturday

    Time Temperature Precipitation Wind Pressure Humidity
    00:00 +13°C° 0 mm 2 mps 734 mmHg 81%
    01:00 +13°C° 0 mm 2 mps 735 mmHg 81%
    02:00 +13°C° 0 mm 2 mps 734 mmHg 81%
    03:00 +12°C° 0 mm 2 mps 735 mmHg 80%
    04:00 +12°C° 0 mm 2 mps 735 mmHg 80%
    05:00 +12°C° 0 mm 2 mps 735 mmHg 80%
    06:00 +14°C° 0 mm 2 mps 735 mmHg 73%
    07:00 +17°C° 0 mm 2 mps 735 mmHg 67%
    08:00 +19°C° 0 mm 3 mps 735 mmHg 62%
    09:00 +20°C° 0 mm 3 mps 735 mmHg 58%
    10:00 +21°C° 0 mm 4 mps 736 mmHg 55%
    11:00 +22°C° 0 mm 4 mps 736 mmHg 52%
    12:00 +23°C° 0.1 mm 4 mps 736 mmHg 49%
    13:00 +25°C° 0.1 mm 4 mps 736 mmHg 47%
    14:00 +26°C° 0.1 mm 4 mps 736 mmHg 44%
    15:00 +25°C° 0.1 mm 4 mps 736 mmHg 46%
    16:00 +25°C° 0.1 mm 3 mps 736 mmHg 47%
    17:00 +25°C° 0.1 mm 3 mps 736 mmHg 48%
    18:00 +23°C° 0 mm 2 mps 736 mmHg 56%
    19:00 +20°C° 0 mm 2 mps 736 mmHg 63%
    20:00 +18°C° 0 mm 1 mps 736 mmHg 71%
    21:00 +18°C° 0 mm 1 mps 736 mmHg 72%
    22:00 +16°C° 0 mm 2 mps 737 mmHg 73%
    23:00 +16°C° 0 mm 2 mps 737 mmHg 74%

    Tomorrow, 26 May, Sunday

    Time Temperature Precipitation Wind Pressure Humidity
    00:00 +15°C° 0 mm 2 mps 737 mmHg 75%
    01:00 +15°C° 0 mm 2 mps 737 mmHg 76%
    02:00 +15°C° 0 mm 2 mps 737 mmHg 77%
    03:00 +15°C° 0 mm 2 mps 737 mmHg 77%
    04:00 +14°C° 0 mm 2 mps 738 mmHg 77%
    05:00 +14°C° 0 mm 1 mps 738 mmHg 78%
    06:00 +18°C° 0 mm 1 mps 738 mmHg 70%
    07:00 +20°C° 0 mm 1 mps 738 mmHg 63%
    08:00 +21°C° 0 mm 0 mps 738 mmHg 56%
    09:00 +24°C° 0 mm 1 mps 739 mmHg 51%
    10:00 +26°C° 0 mm 1 mps 739 mmHg 47%
    11:00 +27°C° 0 mm 2 mps 739 mmHg 42%
    12:00 +27°C° 0 mm 2 mps 739 mmHg 43%
    13:00 +27°C° 0 mm 2 mps 739 mmHg 43%
    14:00 +27°C° 0 mm 2 mps 738 mmHg 44%
    15:00 +28°C° 0 mm 2 mps 738 mmHg 45%
    16:00 +28°C° 0 mm 2 mps 738 mmHg 46%
    17:00 +28°C° 0 mm 2 mps 738 mmHg 48%
    18:00 +25°C° 0.1 mm 1 mps 738 mmHg 56%
    19:00 +23°C° 0.1 mm 1 mps 738 mmHg 65%
    20:00 +21°C° 0.1 mm 1 mps 738 mmHg 74%
    21:00 +20°C° 0 mm 1 mps 738 mmHg 77%
    22:00 +20°C° 0 mm 1 mps 738 mmHg 79%
    23:00 +19°C° 0 mm 1 mps 739 mmHg 82%

    Day after tomorrow, 27 May, Monday

    Time Temperature Precipitation Wind Pressure Humidity
    00:00 +19°C° 0 mm 1 mps 739 mmHg 83%
    01:00 +18°C° 0 mm 1 mps 738 mmHg 83%
    02:00 +18°C° 0 mm 1 mps 738 mmHg 84%
    03:00 +18°C° 0 mm 1 mps 738 mmHg 85%
    04:00 +18°C° 0 mm 1 mps 738 mmHg 86%
    05:00 +16°C° 0 mm 1 mps 738 mmHg 87%
    06:00 +19°C° 0 mm 1 mps 738 mmHg 81%
    07:00 +21°C° 0 mm 1 mps 738 mmHg 74%
    08:00 +23°C° 0 mm 1 mps 739 mmHg 68%
    09:00 +25°C° 0 mm 2 mps 738 mmHg 62%
    10:00 +26°C° 0 mm 2 mps 738 mmHg 56%
    11:00 +28°C° 0 mm 3 mps 738 mmHg 49%
    12:00 +29°C° 0 mm 3 mps 738 mmHg 47%
    13:00 +29°C° 0 mm 3 mps 738 mmHg 44%
    14:00 +30°C° 0 mm 4 mps 738 mmHg 42%
    15:00 +30°C° 0 mm 4 mps 737 mmHg 43%
    16:00 +30°C° 0 mm 4 mps 737 mmHg 45%
    17:00 +29°C° 0 mm 4 mps 737 mmHg 46%
    18:00 +27°C° 0 mm 3 mps 737 mmHg 54%
    19:00 +25°C° 0 mm 2 mps 736 mmHg 62%
    20:00 +23°C° 0 mm 2 mps 736 mmHg 70%
    21:00 +21°C° 0 mm 2 mps 736 mmHg 72%
    22:00 +20°C° 0 mm 2 mps 736 mmHg 74%
    23:00 +19°C° 0 mm 2 mps 736 mmHg 75%

    28 May, Tuesday

    Time Temperature Precipitation Wind Pressure Humidity
    00:00 +18°C° 0 mm 2 mps 736 mmHg 75%
    01:00 +17°C° 0 mm 2 mps 736 mmHg 74%
    02:00 +18°C° 0 mm 1 mps 736 mmHg 73%
    03:00 +16°C° 0 mm 1 mps 735 mmHg 71%
    04:00 +16°C° 0 mm 2 mps 735 mmHg 69%
    05:00 +16°C° 0 mm 2 mps 735 mmHg 67%
    06:00 +18°C° 0 mm 2 mps 735 mmHg 62%
    07:00 +20°C° 0 mm 2 mps 735 mmHg 57%
    08:00 +23°C° 0 mm 2 mps 735 mmHg 52%
    09:00 +25°C° 0 mm 3 mps 735 mmHg 47%
    10:00 +27°C° 0 mm 3 mps 735 mmHg 42%
    11:00 +29°C° 0 mm 4 mps 734 mmHg 38%
    12:00 +30°C° 0 mm 4 mps 734 mmHg 34%
    13:00 +32°C° 0 mm 4 mps 734 mmHg 30%
    14:00 +33°C° 0 mm 4 mps 733 mmHg 26%
    15:00 +33°C° 0 mm 4 mps 733 mmHg 28%
    16:00 +32°C° 0 mm 4 mps 732 mmHg 29%
    17:00 +30°C° 0 mm 4 mps 732 mmHg 31%
    18:00 +28°C° 0 mm 3 mps 732 mmHg 40%
    19:00 +25°C° 0 mm 3 mps 732 mmHg 49%
    20:00 +21°C° 0 mm 3 mps 732 mmHg 58%
    21:00 +21°C° 0 mm 3 mps 732 mmHg 61%
    22:00 +20°C° 0 mm 2 mps 733 mmHg 65%
    23:00 +19°C° 0 mm 2 mps 733 mmHg 69%

    29 May, Wednesday

    Time Temperature Precipitation Wind Pressure Humidity
    00:00 +18°C° 0 mm 2 mps 733 mmHg 71%
    01:00 +18°C° 0 mm 2 mps 733 mmHg 72%
    02:00 +18°C° 0 mm 2 mps 733 mmHg 74%
    03:00 +17°C° 0 mm 2 mps 733 mmHg 75%
    04:00 +17°C° 0 mm 2 mps 733 mmHg 76%
    05:00 +17°C° 0 mm 2 mps 734 mmHg 78%
    06:00 +20°C° 0 mm 1 mps 734 mmHg 70%
    07:00 +22°C° 0 mm 1 mps 734 mmHg 62%
    08:00 +25°C° 0 mm 1 mps 735 mmHg 54%
    09:00 +26°C° 0 mm 1 mps 735 mmHg 50%
    10:00 +28°C° 0 mm 2 mps 735 mmHg 46%
    11:00 +29°C° 0 mm 2 mps 735 mmHg 41%
    12:00 +29°C° 0 mm 2 mps 735 mmHg 41%
    13:00 +29°C° 0 mm 2 mps 735 mmHg 42%
    14:00 +29°C° 0 mm 2 mps 734 mmHg 42%
    15:00 +29°C° 0 mm 2 mps 734 mmHg 43%
    16:00 +29°C° 0 mm 2 mps 734 mmHg 44%
    17:00 +29°C° 0 mm 1 mps 734 mmHg 45%
    18:00 +27°C° 0 mm 1 mps 735 mmHg 51%
    19:00 +25°C° 0 mm 1 mps 735 mmHg 58%
    20:00 +23°C° 0 mm 1 mps 735 mmHg 64%
    21:00 +22°C° 0 mm 1 mps 735 mmHg 67%
    22:00 +20°C° 0 mm 2 mps 736 mmHg 69%
    23:00 +20°C° 0 mm 2 mps 736 mmHg 72%

    30 May, Thursday

    Time Temperature Precipitation Wind Pressure Humidity
    00:00 +19°C° 0 mm 2 mps 736 mmHg 72%
    01:00 +19°C° 0 mm 2 mps 737 mmHg 73%
    02:00 +18°C° 0 mm 2 mps 737 mmHg 73%
    03:00 +18°C° 0 mm 2 mps 737 mmHg 74%
    04:00 +18°C° 0 mm 2 mps 737 mmHg 74%
    05:00 +19°C° 0 mm 1 mps 737 mmHg 74%
    06:00 +21°C° 0 mm 1 mps 737 mmHg 69%
    07:00 +22°C° 0 mm 1 mps 738 mmHg 65%
    08:00 +24°C° 0 mm 1 mps 738 mmHg 60%
    09:00 +25°C° 0.3 mm 1 mps 738 mmHg 59%
    10:00 +26°C° 0.3 mm 1 mps 738 mmHg 58%
    11:00 +27°C° 0.3 mm 2 mps 738 mmHg 57%
    12:00 +28°C° 1.6 mm 2 mps 738 mmHg 57%
    13:00 +28°C° 1.6 mm 2 mps 737 mmHg 58%
    14:00 +28°C° 1.6 mm 2 mps 737 mmHg 58%
    15:00 +28°C° 1.9 mm 2 mps 737 mmHg 59%
    16:00 +28°C° 1.9 mm 1 mps 737 mmHg 60%
    17:00 +28°C° 1.9 mm 1 mps 737 mmHg 61%
    18:00 +25°C° 0.8 mm 1 mps 737 mmHg 67%
    19:00 +23°C° 0.8 mm 1 mps 737 mmHg 73%
    20:00 +21°C° 0.8 mm 1 mps 737 mmHg 78%
    21:00 +21°C° 1 mm 1 mps 737 mmHg 83%
    22:00 +20°C° 1 mm 1 mps 737 mmHg 87%
    23:00 +19°C° 1 mm 1 mps 737 mmHg 91%
    Show more